[[{"header":{"parameterUnit":"m.s-1","parameterCategory":1,"la1":30.2992,"la2":30.254,"lo1":-89.0895,"lo2":-89.0443,"dy":0.0025,"dx":0.0025,"nx":19,"ny":19,"refTime":"2026-03-27T09:00:00:Z","depth":0,"parameterNumber":2,"parameterNumberName":"U-component_of_WINDS"},"data":[0,0,0,-1.1295,-1.1295,-1.1301,-1.1301,-1.1326,-1.1327,0,0,0,0,0,0,0,0,0,0,0,-1.1303,-1.1304,-1.1295,-1.1295,-1.1301,-1.1301,-1.1326,-1.1327,0,0,0,0,0,0,0,0,0,0,0,-1.1303,-1.1304,-1.1304,-1.1295,-1.1301,-1.1301,-1.1326,-1.1316,0,0,0,0,0,0,0,0,0,0,-1.1307,-1.1325,-1.1304,-1.1304,-1.1296,-1.1301,-1.1301,-1.1315,-1.1316,-1.1331,0,-1.1346,0,-1.1337,-1.1329,-1.133,0,0,0,-1.1288,-1.1324,-1.1316,-1.1305,-1.1296,-1.1301,-1.1296,-1.1315,-1.1317,-1.1333,-1.1346,-1.1347,-1.1337,-1.133,-1.133,-1.1438,-1.1438,0,0,-1.1288,-1.131,-1.1315,-1.1317,-1.1316,-1.1296,-1.1297,-1.1316,-1.1333,-1.1346,-1.1347,-1.1338,-1.133,-1.133,-1.1437,-1.1438,0,0,0,-1.1292,-1.131,-1.1302,-1.1317,-1.1316,-1.1297,-1.1297,-1.1332,-1.1327,-1.1347,-1.1338,-1.133,-1.1331,-1.1436,-1.1437,-1.1501,0,0,0,-1.1291,-1.1313,-1.1302,-1.1316,-1.1316,-1.1324,-1.1313,-1.1326,-1.1327,-1.1338,-1.133,-1.1331,-1.1435,-1.1437,-1.1497,-1.1529,0,0,0,-1.13,-1.1313,-1.1318,-1.1317,-1.132,-1.1323,-1.1319,-1.1325,-1.1322,-1.133,-1.1331,-1.1434,-1.1436,-1.1494,-1.1523,-1.1565,0,0,0,-1.1315,-1.1375,-1.1319,-1.1381,-1.132,-1.1362,-1.1319,-1.1349,-1.1363,-1.133,-1.1435,-1.1437,-1.1493,-1.1519,-1.1561,-1.1605,-1.1624,0,0,-1.1403,-1.1386,-1.1421,-1.1371,-1.1429,-1.1359,-1.1426,-1.1418,-1.1399,-1.1426,-1.1428,-1.1499,-1.1523,-1.1564,-1.1724,-1.174,0,0,0,-1.1456,-1.1482,-1.1492,-1.1506,-1.1501,-1.1499,-1.1478,-1.1475,-1.1497,-1.1417,-1.1523,-1.1537,-1.156,-1.158,-1.1594,-1.1613,-1.1447,-1.1446,-1.1446,-1.1613,-1.1584,-1.164,-1.1612,-1.1626,-1.1604,-1.1613,-1.1605,-1.1572,-1.1598,-1.1607,-1.1708,-1.1732,-1.1742,-1.1762,-1.1626,-1.1626,-1.1626,-1.1626,-1.174,-1.1773,-1.1726,-1.1764,-1.1733,-1.1765,-1.1745,-1.1721,-1.1747,-1.1699,-1.1718,-1.167,-1.176,-1.1777,-1.1631,-1.163,-1.1629,-1.1629,-1.1629,-1.1842,-1.1852,-1.1846,-1.1864,-1.188,-1.1849,-1.1876,-1.1846,-1.1819,-1.1838,-1.1845,-1.1843,-1.184,-1.1843,-1.1843,-1.1843,-1.1844,-1.1844,-1.1844,-1.1951,-1.1942,-1.1968,-1.1966,-1.1971,-1.1974,-1.1951,-1.1956,-1.1954,-1.193,-1.193,-1.1896,-1.1773,-1.1744,-1.1849,-1.1848,-1.1848,-1.1847,-1.1847,-1.2094,-1.2056,-1.2096,-1.2101,-1.2097,-1.2116,-1.2077,-1.2089,-1.2088,-1.2103,-1.2063,-1.1977,-1.1958,-1.1947,-1.1923,-1.2068,-1.2068,-1.2068,-1.2068,-1.2181,-1.2168,-1.2202,-1.2212,-1.2218,-1.2187,-1.2234,-1.2217,-1.2194,-1.2192,-1.2166,-1.2131,-1.2121,-1.2108,-1.2093,-1.2071,-1.225,-1.225,-1.225,-1.2268,-1.2254,-1.23,-1.2275,-1.2269,-1.2266,-1.2309,-1.2324,-1.2289,-1.2257,-1.219,-1.2182,-1.2125,-1.2107,-1.2077,-1.2055,-1.2013,0,0]},{"header":{"parameterUnit":"m.s-1","parameterCategory":1,"la1":30.2992,"la2":30.254,"lo1":-89.0895,"lo2":-89.0443,"dy":0.0025,"dx":0.0025,"nx":19,"ny":19,"refTime":"2026-03-27T09:00:00:Z","depth":0,"parameterNumber":3,"parameterNumberName":"V-component_of_WINDS"},"data":[0,0,0,-8.5355,-8.5359,-8.5519,-8.5519,-8.574,-8.5743,0,0,0,0,0,0,0,0,0,0,0,-8.5321,-8.5323,-8.5355,-8.5359,-8.5519,-8.5519,-8.574,-8.5743,0,0,0,0,0,0,0,0,0,0,0,-8.532,-8.5323,-8.5325,-8.536,-8.5519,-8.5519,-8.5739,-8.5612,0,0,0,0,0,0,0,0,0,0,-8.5453,-8.5437,-8.5322,-8.5325,-8.5361,-8.5518,-8.5519,-8.5605,-8.562,-8.5676,0,-8.5733,0,-8.5742,-8.5759,-8.576,0,0,0,-8.5348,-8.5425,-8.5456,-8.5326,-8.5362,-8.5518,-8.5443,-8.5613,-8.563,-8.5696,-8.5736,-8.5744,-8.5746,-8.576,-8.5762,-8.6136,-8.6138,0,0,-8.5339,-8.5356,-8.5445,-8.5467,-8.5448,-8.5438,-8.5449,-8.5623,-8.5667,-8.5737,-8.5749,-8.5749,-8.5762,-8.5764,-8.6133,-8.6136,0,0,0,-8.5321,-8.5351,-8.5377,-8.5459,-8.5487,-8.5443,-8.5455,-8.5659,-8.5666,-8.5751,-8.5752,-8.5763,-8.5766,-8.6131,-8.6134,-8.6267,0,0,0,-8.5315,-8.534,-8.5374,-8.5386,-8.5484,-8.5576,-8.5488,-8.5654,-8.5674,-8.5751,-8.5763,-8.5769,-8.6128,-8.6133,-8.6258,-8.6326,0,0,0,-8.5306,-8.5339,-8.5367,-8.5387,-8.5457,-8.5572,-8.559,-8.5658,-8.5675,-8.576,-8.5769,-8.6127,-8.6132,-8.625,-8.6312,-8.6431,0,0,0,-8.53,-8.5479,-8.537,-8.557,-8.5456,-8.5655,-8.5588,-8.5734,-8.5823,-8.5765,-8.6129,-8.6134,-8.6247,-8.6304,-8.6423,-8.6535,-8.6583,0,0,-8.5536,-8.5508,-8.5625,-8.5532,-8.5756,-8.5629,-8.587,-8.5932,-8.5921,-8.6064,-8.6073,-8.6261,-8.6312,-8.6429,-8.6848,-8.6886,0,0,0,-8.5706,-8.579,-8.5845,-8.5934,-8.5989,-8.6041,-8.6065,-8.6088,-8.6209,-8.6,-8.6335,-8.6364,-8.6432,-8.6485,-8.6518,-8.6576,-8.6159,-8.6159,-8.6158,-8.6063,-8.6045,-8.6237,-8.6239,-8.6325,-8.635,-8.6417,-8.6452,-8.6404,-8.6484,-8.6526,-8.6783,-8.6845,-8.687,-8.693,-8.6583,-8.6584,-8.6584,-8.6584,-8.6408,-8.6525,-8.6462,-8.6627,-8.6605,-8.6741,-8.6773,-8.6735,-8.6857,-8.6748,-8.6807,-8.6691,-8.6913,-8.6965,-8.6594,-8.6592,-8.6591,-8.659,-8.659,-8.664,-8.6693,-8.6722,-8.685,-8.6949,-8.6942,-8.7065,-8.7039,-8.7015,-8.7074,-8.7116,-8.7114,-8.7109,-8.7096,-8.7097,-8.7098,-8.7099,-8.7099,-8.71,-8.687,-8.6898,-8.7007,-8.7084,-8.7138,-8.7206,-8.7235,-8.7287,-8.7337,-8.7308,-8.7309,-8.7254,-8.6939,-8.686,-8.7114,-8.7111,-8.711,-8.7108,-8.7107,-8.7227,-8.7143,-8.7311,-8.7367,-8.7455,-8.7557,-8.7524,-8.7632,-8.767,-8.7732,-8.7665,-8.7436,-8.7405,-8.7378,-8.7313,-8.7669,-8.7669,-8.7669,-8.7669,-8.7423,-8.7407,-8.7574,-8.7665,-8.775,-8.7739,-8.7927,-8.7952,-8.7963,-8.7985,-8.793,-8.7841,-8.7816,-8.7799,-8.7764,-8.7703,-8.8149,-8.815,-8.815,-8.7642,-8.7633,-8.78,-8.7815,-8.7883,-8.7941,-8.8118,-8.8222,-8.8216,-8.8169,-8.8003,-8.7982,-8.7839,-8.7793,-8.7742,-8.7687,-8.7575,0,0]}]]